Погода в Котласе

Погода в Котласе : погода сейчас, прогноз погоды и архив. Всё, что Вы хотите узнать о погоде в Котласе!

Поиск расширенной информации на нашем сайте:

Другие новости

Новости СМИ2

Главная страница сайта

Новости сайта

03.07.2017

Напоминаем, что на нашем специализированном сайте Метеоцентр.Азия вы можете получить высокодетализированные автоматические прогнозы погоды по пунктам России, СНГ и мира в авиационном формате (включающие направление и скорость ветра, видимость, явления погоды, количество и форму облачности, нижнюю и верхнюю границу облачности).

Рекомендуем: дизель генератор 60 квт цена

Погода в Котласе - сегодня

Время (UTC), дата Ветер
(°,м/с) 
Видим.   Явления Облачность Т
(°С)
Тd
(°С)
f(%) Тe
(°С)
Pmin
(гПа)
dP
(гПа)
Po
(мм)
O2
(г/м3)
Тmin Tmax R s Состояние
почвы
21 23.07.17 тихо ()   10 км  местами туман поземный  9/3 1000 м средняя, верхняя 
[Sc|Ac trans|Ci fib]
+12 +11.8 99 +16  1007.3  -0.9  750  287           
00 24.07.17 тихо ()   20000 м  местами туман поземный  10/4 600 м средняя, верхняя 
[Sc|Ac trans|Ci fib]
+11.2 +11 99 +14  1006.1  -1.1  750  288           
03 24.07.17 340 (С) 20000 м    10/4 600 м средняя, верхняя 
[Sc|Ac trans|Ci fib]
+15 +13.2 89 +22  1005  -1.1  749  283  +11.2    0.0    влажная 
06 24.07.17 350 (С) 20000 м    10/4 600 м средняя, верхняя 
[Sc|Ac trans|Ci fib]
+19 +15.4 80 +29  1002.9  -1  748  279           
09 24.07.17 330 (СЗ) 20000 м    10/4 600 м кучево-дожд., средняя, верхняя 
[Cb cap|Ac trans|Ci fib]
+21.4 +15.8 70 +32  1002.2  -0.6  748  276           
12 24.07.17 340 (С) 20000 м    10/4 600 м кучево-дожд., средняя, верхняя 
[Cb cap|Ac trans|Ci fib]
+21.6 +16.9 75 +34  1002.5  -0.7  747  275           
15 24.07.17 310 (СЗ) 20000 м  в посл. час гроза{ливн. осадки}  10/6 420 м кучево-дожд., средняя, верхняя 
[Cb cap|Ac trans|Ci fib]
+17.5 +17.2 98 +31  1002.5  -0.1  747  279    +22  10     
18 24.07.17 330 (СЗ) 10 км  слаб. ливневой дождь{гроза}  10/4 1000 м кучево-дожд., средняя 
[Cb cap|Ac und]
+17.6 +17.3 98 +31  1002.3  -0.2  747  279           
21 24.07.17 290 (З) 10 км  {ливн. осадки}  8/3 600 м средняя 
[Sc|Ac trans]
+16.2 +15.9 98 +27  1002.2  -0.1  747  281           
00 25.07.17 340 (С) 20000 м  {ливн. осадки}  10/8 240 м средняя 
[St|Ac und]
+15.6 +15.2 97 +26  1003.6  1.3  748  282           
03 25.07.17 330 (СЗ) 6000 м  дымка  10/10 210 м 
[St]
+15.8 +15.5 98 +27  1004.5  749  282  +15.6    0.7    влажная 
06 25.07.17 нст () 6000 м  дымка  10/9 700 м 
[Sc]
+17.8 +15.8 88 +29  1005.3  0.8  749  280           
09 25.07.17 нст () 20000 м    10/4 600 м средняя, верхняя 
[Sc|Ac trans|Ci fib]
+19.4 +15.5 78 +31  1005.8  0.5  749  279           
12 25.07.17 нст () 20000 м    8/4 600 м средняя, верхняя 
[Cu hum|Ac trans|Ci fib]
+22 +16.2 70 +33  1005.6  -0.1  749  276           
15 25.07.17 310 (СЗ) 20000 м  гроза без осадков  10/4 600 м кучево-дожд., средняя, верхняя 
[Cb cap|Ac trans|Ci fib]
+23.3 +17.5 70 +37  1004.1  -1.5  748  274    +23.3       
18 25.07.17 300 (СЗ) 20000 м  {гроза, ливн. осадки}  8/4 1000 м кучево-дожд., средняя, верхняя 
[Cb cap|Ac trans|Ci fib]
+18 +17.7 98 +33  1004.8  0.6  749  279           
21 25.07.17 340 (С) 10 км    8/0 верхняя 
[Ci fib]
+15.5 +15.1 97 +26  1005.1  0.2  749  282           
00 26.07.17 тихо ()   20000 м  местами туман поземный  4/0 верхняя 
[Ci fib]
+13.6 +13.4 99 +20  1005.1  749  285           
03 26.07.17 340 (С) 20000 м    10/0 верхняя 
[Ci fib]
+15.4 +15.1 98 +26  1005.9  0.8  749  283  +12.6    0.0    влажная 
06 26.07.17 360 (С) 20000 м    9/5 240 м средняя, верхняя 
[St|Ac trans|Ci fib]
+19.1 +16.6 85 +32  1006.7  0.8  750  279           
09 26.07.17 010 (С) 20000 м    6/3 600 м средняя, верхняя 
[Cu hum|Ac trans|Ci fib]
+22.6 +16.5 68 +34  1006.1  -0.4  750  275           
12 26.07.17 нст () 20000 м    4/3 600 м верхняя 
[Cu hum|Ci fib]
+24.8 +17.1 62 +37  1005.8  -0.3  750  273           
15 26.07.17 330 (СЗ) 20000 м    4/3 600 м верхняя 
[Cu med, cong|Ci fib]
+24.8 +16.7 61 +37  1006.1  0.3  750  273    +26.1       
18 26.07.17 нст () 6000 м  дымка  4/3 1000 м верхняя 
[Sc|Ci fib]
+19.4 +19.1 98 +38  1006.1  -0.1  750  277           
21 26.07.17 тихо ()   6000 м  дымка  4/0 средняя, верхняя 
[Ac trans|Ci fib]
+15.2 +14.9 98 +24  1006.1  -0.1  750  283           
Время (UTC), дата Ветер
(°,м/с) 
Видим.   Явления Облачность Т
(°С)
Тd
(°С)
f(%) Тe
(°С)
Pmin
(гПа)
dP
(гПа)
Po
(мм)
O2
(г/м3)
Тmin Tmax R s Состояние
почвы

Для получения пояснительной информации подведите курсор к названию столбца.

ПОГОДА в Котласе - архив

Всё, что Вы хотите узнать о погоде в Котласе - удобно и подробно!

Выберите нужную дату (начиная с 1 января 2015* года) и нажмите кнопку "Найти".
Будут отображены архивные сводки погоды по пункту Котлас, начиная с указанной даты.


Отображать данные в формате CSV (для использования в таблицах Excel)


Внимание! Наш архив погоды предназначен исключительно для личного некоммерческого использования в познавательных целях. Если Вам необходимы официальные справки о состоянии погоды (для производственных, юридических, коммерческих и т.п. целей), обращайтесь в органы Росгидромета.

*Примечание: данная дата относится к архиву по метеостанциям СССР (Россия, СНГ, Балтия).
Архив по метеостанциям Зарубежной Европы и Азии (кроме Китая) хранится 10 дней, по другим регионам земного шара (Китай, Африка, Америка, Австралия, Океания) - 1 день.

Котлас - район местоположения метеостанции


Название, широта, долгота, высота метеостанции:
Котлас 61.2°ш. 46.7°д. 56 м над ур. моря [Российская Федерация]

Дополнительная информация

В oтличие oт бoльшинства пoгoдных сайтoв мы публикуем пoдрoбную метеoинфoрмацию в детальнoм прoфессиoнальнoм фoрмате.

Характеристики температуры и влажнoсти вoздуха измеряются на высoте 2 м в тени вдали oт зданий и деревьев.
Скoрoсть ветра измеряется на высoте 10 м (на урoвне рoста челoвека скoрoсть ветра ниже в 1.5-2 раза). Если метеoстанция нахoдится в гoрoде или в лесу, тo скoрoсть ветра занижена на 2-4 м/с пo сравнению с oткрытым местoм. Скoрoсть ветра над акватoриями крупных рек и oзёр, а также на вершинах хoлмoв на 2-5 м/с выше, чем в oбычных услoвиях.
Атмoсфернoе давление в разных тoчках местнoсти мoжет значительнo oтличаться oт давления на метеoстанции, в зависимoсти oт услoвий рельефа (при пoдъёме на 10 м давление пoнижается примернo на 1 мм рт.ст.).